San Jose, Costa Rica

3:42 AM CST on May 24, 2017 (GMT -0600)
Juan Santamaria International

Weather History for MROC - July, 2012

Change the Weather History Date:

Saturday, July 21, 2012

  Actual Average Record
Temperature  
Mean Temperature 74 °F -  
Max Temperature 82 °F 80 °F 86 °F (1997)
Min Temperature 66 °F 64 °F 61 °F (2015)
Cooling Degree Days 9    
Growing Degree Days 24 (Base 50)    
Moisture  
Dew Point 64 °F    
Average Humidity 73    
Maximum Humidity 88    
Minimum Humidity 40    
Precipitation  
Precipitation 0.00 in 0.33 in - ()
Sea Level Pressure  
Sea Level Pressure 29.93 in    
Wind  
Wind Speed 5 mph ()    
Max Wind Speed 9 mph    
Max Gust Speed -    
Visibility 8.0 miles    
Events Rain    
Averages and records for this station are not official NWS values.
T = Trace of Precipitation, MM = Missing Value Source: Averaged Metar Reports

Daily Weather History Graph

Daily Weather History Graph

Search for Another Location

Airport or City:

Trip Planner

Search our weather history database for the weather conditions in past years. The results will help you decide how hot, cold, wet, or windy it might be!

Date:

Astronomy

Jul. 21, 2012 Rise Set
Actual Time 5:24 AM CST 6:01 PM CST
Civil Twilight 5:02 AM CST 6:24 PM CST
Nautical Twilight 4:35 AM CST 6:50 PM CST
Astronomical Twilight 4:08 AM CST 7:17 PM CST
Moon 7:26 AM CST (7/21) 7:58 PM CST (7/21)
Length of Visible Light 13h 22m
Length of Day
12h 37m
Waxing Crescent, 7% of the Moon is Illuminated
Jul 21
Waxing Crescent
Jul 26
First Quarter
Aug 1
Full
Aug 9
Last Quarter
Aug 17
New

Hourly Weather History & Observations

Time (CST) Temp. Heat Index Dew Point Humidity Pressure Visibility Wind Dir Wind Speed Gust Speed Precip Events Conditions
12:00 AM 69.8 °F - 62.6 °F 78% 29.98 in 6.2 mi East 4.6 mph - N/A   Scattered Clouds
1:00 AM 69.8 °F - 62.6 °F 78% 29.98 in 6.2 mi ESE 4.6 mph - N/A   Scattered Clouds
2:00 AM 68.0 °F - 62.6 °F 83% 29.97 in 6.2 mi NNE 5.8 mph - N/A   Scattered Clouds
3:00 AM 68 °F - 63 °F 78% 29.80 in 12 mi NNE 5.8 mph - -   Partly Cloudy
3:00 AM 68.0 °F - 62.6 °F 83% 29.97 in - NNE 5.8 mph - N/A   Clear
4:00 AM 68.0 °F - 62.6 °F 83% 29.96 in - East 4.6 mph - N/A   Clear
5:00 AM 66.2 °F - 62.6 °F 88% 29.96 in - SW 4.6 mph - N/A   Clear
6:00 AM 68 °F - 63 °F 80% 29.85 in 12 mi NNE 5.8 mph - -   Clear
6:00 AM 68.0 °F - 62.6 °F 83% 29.98 in - NNE 5.8 mph - N/A   Clear
7:00 AM 69.8 °F - 62.6 °F 78% 29.99 in - East 3.5 mph - N/A   Clear
8:00 AM 73.4 °F - 62.6 °F 69% 29.97 in - Calm Calm - N/A   Clear
9:00 AM 74 °F - 62 °F 59% 29.83 in 12 mi ESE 2.3 mph - -   Partly Cloudy
9:00 AM 75.2 °F - 62.6 °F 65% 29.97 in - ESE 2.3 mph - N/A   Clear
10:00 AM 75.2 °F - 60.8 °F 61% 29.99 in - ESE 6.9 mph - N/A   Clear
11:00 AM 77.0 °F - 60.8 °F 57% 30.00 in 6.2 mi ESE 8.1 mph - N/A   Mostly Cloudy
12:00 PM 81 °F - 61 °F 40% 29.81 in 12 mi East 9.2 mph - -   Scattered Clouds
12:00 PM 80.6 °F 81.5 °F 60.8 °F 51% 29.99 in 6.2 mi East 9.2 mph - N/A   Mostly Cloudy
1:00 PM 82.4 °F 82.9 °F 60.8 °F 48% 29.96 in 6.2 mi ESE 6.9 mph - N/A   Mostly Cloudy
2:00 PM 77.0 °F - 66.2 °F 69% 29.95 in 6.2 mi WSW 9.2 mph - N/A   Scattered Clouds
3:00 PM 75 °F - 67 °F 69% 29.79 in 12 mi WSW 9.2 mph - -   Partly Cloudy
3:00 PM 75.2 °F - 66.2 °F 73% 29.93 in 6.2 mi WSW 9.2 mph - N/A   Mostly Cloudy
4:00 PM 75.2 °F - 66.2 °F 73% 29.93 in 6.2 mi West 4.6 mph - N/A Rain Light Rain
5:00 PM 73.4 °F - 68.0 °F 83% 29.94 in 6.2 mi SW 3.5 mph - N/A   Mostly Cloudy
6:00 PM 73 °F - 68 °F 80% 29.81 in 12 mi SW 3.5 mph - -   Overcast
6:00 PM 73.4 °F - 68.0 °F 83% 29.95 in 6.2 mi SW 3.5 mph - N/A   Mostly Cloudy
7:00 PM 71.6 °F - 66.2 °F 83% 29.96 in 6.2 mi WSW 4.6 mph - N/A   Mostly Cloudy
8:00 PM 69.8 °F - 66.2 °F 88% 29.97 in 6.2 mi NNW 3.5 mph - N/A   Mostly Cloudy
9:00 PM 72 °F - 64 °F 69% 29.83 in 12 mi East 3.5 mph - -   Overcast
9:00 PM 71.6 °F - 64.4 °F 78% 29.98 in 6.2 mi East 3.5 mph - N/A   Mostly Cloudy
10:00 PM 71.6 °F - 66.2 °F 83% 29.99 in 6.2 mi WNW 2.3 mph - N/A   Mostly Cloudy
11:00 PM 71.6 °F - 64.4 °F 78% 29.98 in 6.2 mi ENE 3.5 mph - N/A   Mostly Cloudy